SBI6262 UWKD-URWW

Flight info

Callsign SBI6262
Flight time 1h 16m
Altitude 30000
Route SONUM1G SONUM T789 DAFOS P135 UROBO R807 RODUN RODUN1J
Aircraft A20N/M-SDE2E3FGHIRWXY/LB1

Departure

Time 2026-05-07 19:06
Airport Kazan International Airport (UWKD)

Arrival

Time 2026-05-07 20:23
Airport Volgograd International Airport (URWW)
Time Latitude Longitude Altitude Speed Heading
2026-05-07 18:17 55.60729 49.29879 419 ft 0 kts 33°
2026-05-07 18:34 55.60724 49.29874 427 ft 2 kts 33°
2026-05-07 18:34 55.60707 49.29854 419 ft 0 kts 33°
2026-05-07 18:35 55.60706 49.29852 419 ft 2 kts 24°
2026-05-07 18:35 55.60690 49.29843 418 ft 2 kts 15°
2026-05-07 18:35 55.60675 49.29836 416 ft 2 kts 18°
2026-05-07 18:35 55.60660 49.29824 419 ft 2 kts 25°
2026-05-07 18:36 55.60646 49.29810 419 ft 2 kts 43°
2026-05-07 18:36 55.60636 49.29795 417 ft 0 kts 39°
2026-05-07 18:47 55.60662 49.29814 422 ft 4 kts
2026-05-07 18:47 55.60686 49.29794 424 ft 4 kts 320°
2026-05-07 18:48 55.60711 49.29742 419 ft 7 kts 304°
2026-05-07 18:48 55.60748 49.29646 415 ft 12 kts 304°
2026-05-07 18:48 55.60799 49.29501 420 ft 15 kts 293°
2026-05-07 18:48 55.60786 49.29395 422 ft 8 kts 215°
2026-05-07 18:49 55.60730 49.29326 420 ft 12 kts 215°
2026-05-07 18:49 55.60651 49.29229 418 ft 17 kts 214°
2026-05-07 18:49 55.60577 49.29046 418 ft 22 kts 265°
2026-05-07 18:49 55.60589 49.28743 413 ft 28 kts 274°
2026-05-07 18:50 55.60617 49.28578 410 ft 1 kts 325°
2026-05-07 18:50 55.60635 49.28543 413 ft 6 kts 305°
2026-05-07 18:50 55.60653 49.28488 411 ft 10 kts 301°
2026-05-07 18:50 55.60702 49.28345 412 ft 18 kts 301°
2026-05-07 18:51 55.60786 49.28115 411 ft 26 kts 304°
2026-05-07 18:51 55.60904 49.27809 408 ft 33 kts 304°
2026-05-07 18:51 55.61048 49.27439 400 ft 39 kts 304°
2026-05-07 18:51 55.61131 49.27225 397 ft 14 kts 303°
2026-05-07 18:52 55.61199 49.27046 394 ft 21 kts 304°
2026-05-07 18:52 55.61298 49.26795 394 ft 29 kts 304°
2026-05-07 18:52 55.61411 49.26506 388 ft 27 kts 304°
2026-05-07 18:52 55.61518 49.26230 384 ft 29 kts 304°
2026-05-07 18:53 55.61632 49.25935 381 ft 31 kts 303°
2026-05-07 18:53 55.61764 49.25597 375 ft 33 kts 304°
2026-05-07 18:53 55.61848 49.25320 370 ft 12 kts 257°
2026-05-07 18:53 55.61845 49.25305 370 ft 0 kts 241°
2026-05-07 18:57 55.61843 49.25301 370 ft 4 kts 240°
2026-05-07 18:58 55.61803 49.25234 371 ft 8 kts 215°
2026-05-07 18:58 55.61797 49.25225 371 ft 2 kts 215°
2026-05-07 18:58 55.61792 49.25219 371 ft 2 kts 215°
2026-05-07 18:58 55.61791 49.25218 371 ft 0 kts 215°
2026-05-07 18:59 55.61796 49.25224 371 ft 0 kts 215°
2026-05-07 19:03 55.61795 49.25224 371 ft 1 kts 215°
2026-05-07 19:03 55.61762 49.25182 370 ft 11 kts 215°
2026-05-07 19:03 55.61687 49.25157 372 ft 12 kts 147°
2026-05-07 19:04 55.61655 49.25225 372 ft 0 kts 124°
2026-05-07 19:05 55.61650 49.25237 374 ft 6 kts 124°
2026-05-07 19:05 55.61581 49.25415 374 ft 37 kts 125°
2026-05-07 19:05 55.61288 49.26167 384 ft 112 kts 124°
2026-05-07 19:05 55.60717 49.27626 568 ft 165 kts 125°
2026-05-07 19:06 55.59992 49.29462 946 ft 195 kts 124°
2026-05-07 19:06 55.58532 49.33244 3022 ft 181 kts 125°
2026-05-07 19:06 55.57799 49.35138 3655 ft 198 kts 124°
2026-05-07 19:07 55.56949 49.37330 3937 ft 237 kts 123°
2026-05-07 19:07 55.55927 49.39969 3984 ft 284 kts 123°
2026-05-07 19:07 55.54478 49.42732 3947 ft 328 kts 144°
2026-05-07 19:07 55.52434 49.44132 3889 ft 307 kts 173°
2026-05-07 19:08 55.50400 49.43643 3597 ft 291 kts 204°
2026-05-07 19:08 55.48907 49.41437 3392 ft 274 kts 239°
2026-05-07 19:08 55.48188 49.38522 3522 ft 244 kts 250°
2026-05-07 19:08 55.47424 49.36183 3959 ft 198 kts 219°
2026-05-07 19:09 55.46376 49.34976 4465 ft 182 kts 208°
2026-05-07 19:09 55.45135 49.33851 4650 ft 218 kts 207°
2026-05-07 19:09 55.43694 49.32545 4898 ft 248 kts 208°
2026-05-07 19:09 55.42082 49.31080 5260 ft 267 kts 207°
2026-05-07 19:10 55.40401 49.29608 5909 ft 278 kts 207°
2026-05-07 19:10 55.38553 49.28086 5941 ft 311 kts 205°
2026-05-07 19:10 55.36499 49.26473 6145 ft 334 kts 204°
2026-05-07 19:10 55.34372 49.24824 6854 ft 320 kts 204°
2026-05-07 19:11 55.32440 49.23333 7144 ft 293 kts 204°
2026-05-07 19:11 55.30597 49.21910 7010 ft 287 kts 204°
2026-05-07 19:11 55.28833 49.20560 7215 ft 276 kts 204°
2026-05-07 19:11 55.27038 49.19187 7473 ft 283 kts 204°
2026-05-07 19:12 55.25226 49.17798 7786 ft 291 kts 204°
2026-05-07 19:12 55.23354 49.16354 8242 ft 295 kts 204°
2026-05-07 19:12 55.21447 49.14872 8693 ft 299 kts 205°
2026-05-07 19:12 55.19529 49.13387 9097 ft 304 kts 204°
2026-05-07 19:13 55.17612 49.11902 9544 ft 307 kts 205°
2026-05-07 19:13 55.15693 49.10245 9996 ft 309 kts 209°
2026-05-07 19:13 55.13803 49.08432 10437 ft 311 kts 211°
2026-05-07 19:13 55.11928 49.06537 10895 ft 312 kts 212°
2026-05-07 19:14 55.10051 49.04606 11389 ft 314 kts 212°
2026-05-07 19:14 55.08168 49.02668 11860 ft 315 kts 212°
2026-05-07 19:14 55.06269 49.00728 12340 ft 317 kts 212°
2026-05-07 19:14 55.04359 48.98793 12833 ft 319 kts 212°
2026-05-07 19:15 55.02430 48.96854 13324 ft 321 kts 212°
2026-05-07 19:15 55.00491 48.94914 13832 ft 324 kts 212°
2026-05-07 19:15 54.98520 48.92947 14574 ft 328 kts 211°
2026-05-07 19:15 54.96535 48.90971 15412 ft 330 kts 211°
2026-05-07 19:16 54.94539 48.88987 16260 ft 332 kts 211°
2026-05-07 19:16 54.92519 48.86982 17092 ft 336 kts 211°
2026-05-07 19:16 54.90470 48.84948 17701 ft 346 kts 211°
2026-05-07 19:16 54.88322 48.82815 17936 ft 367 kts 211°
2026-05-07 19:17 54.86033 48.80542 17954 ft 392 kts 211°
2026-05-07 19:17 54.83632 48.78165 17950 ft 393 kts 211°
2026-05-07 19:17 54.81310 48.75881 17962 ft 374 kts 211°
2026-05-07 19:17 54.79091 48.73706 17963 ft 358 kts 211°
2026-05-07 19:18 54.76970 48.71630 17958 ft 344 kts 211°
2026-05-07 19:18 54.74899 48.69600 17962 ft 341 kts 211°
2026-05-07 19:18 54.72816 48.67557 17953 ft 351 kts 211°
2026-05-07 19:18 54.70648 48.65427 17992 ft 365 kts 211°
2026-05-07 19:19 54.68416 48.63238 18486 ft 370 kts 211°
2026-05-07 19:19 54.66173 48.61044 19066 ft 371 kts 211°
2026-05-07 19:19 54.63917 48.58843 19622 ft 374 kts 211°
2026-05-07 19:19 54.61644 48.56629 20172 ft 376 kts 210°
2026-05-07 19:20 54.59354 48.54402 20686 ft 380 kts 210°
2026-05-07 19:20 54.57048 48.52161 20926 ft 381 kts 210°
2026-05-07 19:20 54.54731 48.49912 20960 ft 383 kts 210°
2026-05-07 19:20 54.52379 48.47633 20958 ft 393 kts 210°
2026-05-07 19:21 54.49977 48.45308 20958 ft 398 kts 210°
2026-05-07 19:21 54.47559 48.42970 20959 ft 397 kts 210°
2026-05-07 19:21 54.45207 48.40701 21025 ft 391 kts 210°
2026-05-07 19:21 54.42837 48.38417 21478 ft 391 kts 210°
2026-05-07 19:22 54.40460 48.36128 22136 ft 392 kts 210°
2026-05-07 19:22 54.38084 48.33843 22748 ft 394 kts 210°
2026-05-07 19:22 54.35681 48.31535 23314 ft 396 kts 209°
2026-05-07 19:22 54.33263 48.29216 23808 ft 400 kts 209°
2026-05-07 19:23 54.30828 48.26884 24240 ft 403 kts 209°
2026-05-07 19:23 54.28385 48.24547 24680 ft 406 kts 209°
2026-05-07 19:23 54.25861 48.22324 25102 ft 409 kts 206°
2026-05-07 19:23 54.23280 48.20242 25534 ft 412 kts 205°
2026-05-07 19:24 54.20668 48.18202 25947 ft 414 kts 204°
2026-05-07 19:24 54.18029 48.16181 26355 ft 417 kts 204°
2026-05-07 19:24 54.15383 48.14173 26750 ft 420 kts 204°
2026-05-07 19:24 54.12701 48.12145 27143 ft 422 kts 204°
2026-05-07 19:25 54.10013 48.10113 27530 ft 425 kts 204°
2026-05-07 19:25 54.07298 48.08060 27906 ft 428 kts 204°
2026-05-07 19:25 54.04599 48.06018 28686 ft 420 kts 204°
2026-05-07 19:25 54.01951 48.04015 29358 ft 416 kts 204°
2026-05-07 19:26 53.99301 48.02012 29725 ft 419 kts 204°
2026-05-07 19:26 53.96615 47.99983 29908 ft 426 kts 204°
2026-05-07 19:26 53.91113 47.95837 29962 ft 446 kts 204°
2026-05-07 19:27 53.85275 47.91452 29961 ft 466 kts 204°
2026-05-07 19:27 53.79048 47.88054 29963 ft 477 kts 194°
2026-05-07 19:28 53.72614 47.85349 29964 ft 476 kts 193°
2026-05-07 19:28 53.66324 47.81863 29968 ft 476 kts 200°
2026-05-07 19:29 53.60134 47.77864 29965 ft 476 kts 201°
2026-05-07 19:29 53.53971 47.73760 29970 ft 476 kts 201°
2026-05-07 19:30 53.47852 47.69509 29962 ft 475 kts 206°
2026-05-07 19:30 53.41978 47.64426 29962 ft 475 kts 208°
2026-05-07 19:31 53.36165 47.59185 29961 ft 475 kts 208°
2026-05-07 19:31 53.30354 47.53919 29959 ft 475 kts 208°
2026-05-07 19:32 53.24538 47.48697 29959 ft 475 kts 208°
2026-05-07 19:32 53.18708 47.43492 29958 ft 475 kts 208°
2026-05-07 19:33 53.12881 47.38304 29959 ft 475 kts 208°
2026-05-07 19:33 53.07045 47.33124 29958 ft 475 kts 208°
2026-05-07 19:34 53.01206 47.27955 29972 ft 475 kts 208°
2026-05-07 19:34 52.95387 47.22820 29954 ft 475 kts 208°
2026-05-07 19:35 52.89549 47.17684 29953 ft 475 kts 208°
2026-05-07 19:35 52.83711 47.12564 29957 ft 475 kts 208°
2026-05-07 19:36 52.77904 47.07487 29955 ft 475 kts 208°
2026-05-07 19:36 52.73030 47.03240 29958 ft 471 kts 208°
2026-05-07 19:37 52.69252 46.99956 29958 ft 457 kts 208°
2026-05-07 19:37 52.66451 46.97525 29951 ft 454 kts 208°
2026-05-07 19:37 52.60875 46.92696 29950 ft 452 kts 208°
2026-05-07 19:38 52.56208 46.88664 29951 ft 452 kts 208°
2026-05-07 19:38 52.50646 46.83872 29951 ft 449 kts 208°
2026-05-07 19:39 52.45114 46.79119 29945 ft 449 kts 208°
2026-05-07 19:39 52.39575 46.74372 29945 ft 450 kts 208°
2026-05-07 19:40 52.34051 46.69652 29948 ft 451 kts 208°
2026-05-07 19:40 52.28492 46.64916 29943 ft 451 kts 208°
2026-05-07 19:41 52.22930 46.60191 29943 ft 451 kts 208°
2026-05-07 19:41 52.17361 46.55473 29930 ft 451 kts 208°
2026-05-07 19:42 52.11804 46.50781 29936 ft 450 kts 207°
2026-05-07 19:42 52.06239 46.46097 29934 ft 450 kts 207°
2026-05-07 19:43 52.00668 46.41420 29937 ft 450 kts 207°
2026-05-07 19:43 51.95101 46.36759 29943 ft 450 kts 207°
2026-05-07 19:44 51.89542 46.32119 29950 ft 450 kts 207°
2026-05-07 19:44 51.83975 46.27484 29955 ft 450 kts 207°
2026-05-07 19:45 51.78409 46.22863 29964 ft 450 kts 207°
2026-05-07 19:45 51.72847 46.18258 29962 ft 450 kts 207°
2026-05-07 19:46 51.67268 46.13652 29969 ft 451 kts 207°
2026-05-07 19:46 51.61684 46.09055 29965 ft 451 kts 207°
2026-05-07 19:47 51.56089 46.04472 29957 ft 451 kts 207°
2026-05-07 19:47 51.50442 46.00081 29949 ft 451 kts 205°
2026-05-07 19:48 51.44761 45.95785 29937 ft 451 kts 205°
2026-05-07 19:48 51.39088 45.91503 29932 ft 450 kts 205°
2026-05-07 19:49 51.33447 45.87235 29937 ft 448 kts 205°
2026-05-07 19:49 51.27855 45.83005 29938 ft 448 kts 205°
2026-05-07 19:50 51.22225 45.78757 29939 ft 448 kts 205°
2026-05-07 19:50 51.16591 45.74519 29931 ft 447 kts 205°
2026-05-07 19:51 51.10968 45.70301 29942 ft 448 kts 205°
2026-05-07 19:51 51.05325 45.66088 29937 ft 448 kts 204°
2026-05-07 19:52 50.99392 45.63100 29939 ft 448 kts 194°
2026-05-07 19:52 50.93323 45.60817 29946 ft 449 kts 192°
2026-05-07 19:53 50.87223 45.58671 29943 ft 449 kts 192°
2026-05-07 19:53 50.81127 45.56525 29949 ft 449 kts 192°
2026-05-07 19:54 50.75036 45.54377 29947 ft 449 kts 192°
2026-05-07 19:54 50.68940 45.52252 29945 ft 449 kts 192°
2026-05-07 19:55 50.62846 45.50135 29947 ft 448 kts 192°
2026-05-07 19:55 50.56750 45.48022 29951 ft 448 kts 192°
2026-05-07 19:56 50.50694 45.45926 29941 ft 449 kts 192°
2026-05-07 19:56 50.44580 45.43815 29949 ft 450 kts 192°
2026-05-07 19:57 50.38471 45.41713 29941 ft 450 kts 192°
2026-05-07 19:57 50.32348 45.39610 29948 ft 450 kts 192°
2026-05-07 19:58 50.26255 45.37524 29460 ft 445 kts 192°
2026-05-07 19:58 50.23239 45.36493 28837 ft 443 kts 192°
2026-05-07 19:58 50.20233 45.35467 28258 ft 441 kts 192°
2026-05-07 19:59 50.17254 45.34451 27719 ft 438 kts 192°
2026-05-07 19:59 50.14282 45.33439 27010 ft 438 kts 192°
2026-05-07 19:59 50.11278 45.32418 25957 ft 447 kts 192°
2026-05-07 19:59 50.08203 45.31374 24856 ft 454 kts 192°
2026-05-07 20:00 50.05119 45.30328 23787 ft 455 kts 192°
2026-05-07 20:00 50.02028 45.29262 22575 ft 455 kts 193°
2026-05-07 20:00 49.98968 45.27994 21354 ft 455 kts 195°
2026-05-07 20:00 49.95972 45.26668 20211 ft 453 kts 195°
2026-05-07 20:01 49.92913 45.25306 19077 ft 451 kts 196°
2026-05-07 20:01 49.89902 45.23970 17960 ft 448 kts 195°
2026-05-07 20:01 49.86961 45.22669 16812 ft 443 kts 195°
2026-05-07 20:01 49.84016 45.21371 15685 ft 438 kts 195°
2026-05-07 20:02 49.81068 45.20075 14598 ft 432 kts 195°
2026-05-07 20:02 49.78197 45.18815 13542 ft 427 kts 195°
2026-05-07 20:02 49.75392 45.17587 12395 ft 422 kts 195°
2026-05-07 20:02 49.72585 45.16359 11291 ft 417 kts 195°
2026-05-07 20:03 49.69816 45.15150 10215 ft 411 kts 196°
2026-05-07 20:03 49.67085 45.13922 9103 ft 405 kts 198°
2026-05-07 20:03 49.64448 45.12477 7984 ft 399 kts 201°
2026-05-07 20:03 49.61878 45.10982 6919 ft 392 kts 201°
2026-05-07 20:04 49.59348 45.09500 5852 ft 385 kts 201°
2026-05-07 20:04 49.56861 45.08048 4770 ft 379 kts 201°
2026-05-07 20:04 49.54429 45.06634 3915 ft 367 kts 201°
2026-05-07 20:04 49.52106 45.05287 3447 ft 346 kts 201°
2026-05-07 20:05 49.49931 45.04029 3219 ft 321 kts 201°
2026-05-07 20:05 49.47923 45.02868 3339 ft 294 kts 201°
2026-05-07 20:05 49.46097 45.01815 3365 ft 268 kts 201°
2026-05-07 20:05 49.44408 45.00841 3364 ft 252 kts 201°
2026-05-07 20:06 49.42815 44.99922 3357 ft 236 kts 201°
2026-05-07 20:06 49.41324 44.99064 3357 ft 222 kts 201°
2026-05-07 20:06 49.39894 44.98241 3360 ft 218 kts 201°
2026-05-07 20:06 49.38473 44.97422 3199 ft 219 kts 201°
2026-05-07 20:07 49.37046 44.96602 2994 ft 216 kts 201°
2026-05-07 20:07 49.35644 44.95797 2769 ft 214 kts 201°
2026-05-07 20:07 49.34272 44.95010 2575 ft 206 kts 201°
2026-05-07 20:07 49.32936 44.94244 2468 ft 206 kts 202°
2026-05-07 20:08 49.31593 44.93473 2463 ft 207 kts 201°
2026-05-07 20:08 49.30243 44.92699 2458 ft 207 kts 201°
2026-05-07 20:08 49.28894 44.91926 2462 ft 206 kts 201°
2026-05-07 20:08 49.27567 44.91167 2456 ft 200 kts 201°
2026-05-07 20:09 49.26271 44.90427 2460 ft 197 kts 201°
2026-05-07 20:09 49.24991 44.89695 2465 ft 196 kts 201°
2026-05-07 20:09 49.23718 44.88967 2463 ft 192 kts 201°
2026-05-07 20:10 49.21266 44.87568 2461 ft 187 kts 201°
2026-05-07 20:10 49.20046 44.86872 2466 ft 187 kts 201°
2026-05-07 20:10 49.18828 44.86177 2463 ft 187 kts 202°
2026-05-07 20:10 49.17612 44.85484 2465 ft 187 kts 201°
2026-05-07 20:11 49.16397 44.84792 2463 ft 187 kts 201°
2026-05-07 20:11 49.15179 44.84099 2464 ft 186 kts 202°
2026-05-07 20:11 49.13966 44.83409 2464 ft 186 kts 202°
2026-05-07 20:11 49.12750 44.82717 2465 ft 187 kts 202°
2026-05-07 20:12 49.11524 44.82020 2466 ft 188 kts 202°
2026-05-07 20:12 49.10292 44.81320 2468 ft 189 kts 202°
2026-05-07 20:12 49.09066 44.80624 2463 ft 188 kts 202°
2026-05-07 20:12 49.07839 44.79929 2464 ft 188 kts 202°
2026-05-07 20:13 49.06611 44.79232 2464 ft 188 kts 202°
2026-05-07 20:13 49.05380 44.78535 2462 ft 187 kts 202°
2026-05-07 20:13 49.04170 44.77849 2468 ft 185 kts 202°
2026-05-07 20:13 49.02969 44.77170 2467 ft 184 kts 202°
2026-05-07 20:14 49.01766 44.76489 2468 ft 184 kts 202°
2026-05-07 20:14 49.00564 44.75809 2465 ft 185 kts 202°
2026-05-07 20:14 48.99360 44.75128 2466 ft 184 kts 202°
2026-05-07 20:14 48.98158 44.74449 2483 ft 183 kts 202°
2026-05-07 20:15 48.96985 44.73787 2485 ft 182 kts 202°
2026-05-07 20:15 48.95790 44.73112 2474 ft 184 kts 202°
2026-05-07 20:15 48.94590 44.72435 2478 ft 184 kts 202°
2026-05-07 20:15 48.93389 44.71758 2479 ft 184 kts 202°
2026-05-07 20:16 48.92189 44.71082 2476 ft 184 kts 202°
2026-05-07 20:16 48.90983 44.70394 2479 ft 185 kts 204°
2026-05-07 20:16 48.89862 44.69476 2474 ft 183 kts 219°
2026-05-07 20:16 48.88985 44.68108 2481 ft 179 kts 238°
2026-05-07 20:17 48.88374 44.66469 2480 ft 178 kts 246°
2026-05-07 20:17 48.87843 44.64774 2484 ft 178 kts 248°
2026-05-07 20:17 48.87328 44.63065 2484 ft 178 kts 249°
2026-05-07 20:17 48.86818 44.61356 2481 ft 178 kts 248°
2026-05-07 20:18 48.86294 44.59707 2486 ft 168 kts 247°
2026-05-07 20:18 48.85798 44.58137 2490 ft 164 kts 248°
2026-05-07 20:18 48.85312 44.56575 2486 ft 164 kts 247°
2026-05-07 20:18 48.84820 44.55013 2492 ft 164 kts 247°
2026-05-07 20:19 48.84321 44.53456 2427 ft 164 kts 246°
2026-05-07 20:19 48.83801 44.51919 2362 ft 164 kts 245°
2026-05-07 20:19 48.83283 44.50380 2326 ft 162 kts 246°
2026-05-07 20:19 48.82814 44.48846 2257 ft 159 kts 249°
2026-05-07 20:20 48.82350 44.47323 2141 ft 159 kts 247°
2026-05-07 20:20 48.81883 44.45825 1934 ft 156 kts 249°
2026-05-07 20:20 48.81421 44.44349 1708 ft 155 kts 245°
2026-05-07 20:20 48.80931 44.42880 1505 ft 155 kts 246°
2026-05-07 20:21 48.80469 44.41407 1306 ft 154 kts 248°
2026-05-07 20:21 48.80031 44.39934 1141 ft 153 kts 246°
2026-05-07 20:21 48.79578 44.38477 943 ft 152 kts 245°
2026-05-07 20:21 48.79132 44.37041 753 ft 148 kts 245°
2026-05-07 20:22 48.78682 44.35639 572 ft 146 kts 244°
2026-05-07 20:22 48.78258 44.34297 465 ft 130 kts 244°
2026-05-07 20:22 48.77960 44.33360 452 ft 61 kts 244°
2026-05-07 20:22 48.77790 44.32820 434 ft 54 kts 244°
2026-05-07 20:23 48.77632 44.32317 430 ft 44 kts 244°
2026-05-07 20:23 48.77524 44.31981 422 ft 23 kts 245°
2026-05-07 20:23 48.77533 44.31798 419 ft 18 kts 328°
2026-05-07 20:23 48.77631 44.31751 428 ft 10 kts 34°
2026-05-07 20:24 48.77652 44.31798 426 ft 0 kts 61°
2026-05-07 20:27 48.77653 44.31802 429 ft 3 kts 62°
2026-05-07 20:27 48.77678 44.31879 421 ft 13 kts 65°
2026-05-07 20:27 48.77730 44.32043 427 ft 21 kts 63°
2026-05-07 20:28 48.77799 44.32266 431 ft 26 kts 63°
2026-05-07 20:28 48.77881 44.32522 430 ft 28 kts 65°
2026-05-07 20:28 48.77969 44.32804 432 ft 31 kts 64°
2026-05-07 20:28 48.78064 44.33107 447 ft 33 kts 66°
2026-05-07 20:29 48.78166 44.33428 451 ft 35 kts 64°
2026-05-07 20:29 48.78271 44.33759 454 ft 35 kts 65°
2026-05-07 20:29 48.78374 44.34086 459 ft 32 kts 64°
2026-05-07 20:29 48.78490 44.34184 458 ft 22 kts 345°
2026-05-07 20:30 48.78636 44.34146 455 ft 4 kts 34°
2026-05-07 20:30 48.78671 44.34255 458 ft 20 kts 68°
2026-05-07 20:30 48.78722 44.34449 464 ft 20 kts 68°
2026-05-07 20:30 48.78772 44.34644 466 ft 20 kts 69°
2026-05-07 20:31 48.78810 44.34793 472 ft 5 kts 69°
2026-05-07 20:31 48.78811 44.34796 472 ft 1 kts 69°
2026-05-07 20:31 48.78814 44.34809 469 ft 5 kts 67°
2026-05-07 20:31 48.78831 44.34869 471 ft 7 kts 63°
2026-05-07 20:32 48.78881 44.34901 470 ft 10 kts 347°
2026-05-07 20:32 48.78932 44.34873 473 ft 1 kts 339°
2026-05-07 20:32 48.78933 44.34872 473 ft 0 kts 339°
2026-05-07 20:32 48.78926 44.34876 473 ft 2 kts 339°
2026-05-07 20:33 48.78917 44.34882 471 ft 0 kts 339°
2026-05-07 20:33 48.78910 44.34885 472 ft 0 kts 339°
2026-05-07 20:33 48.78898 44.34893 474 ft 0 kts 339°
2026-05-07 20:33 48.78881 44.34903 470 ft 0 kts 339°
2026-05-07 20:34 48.78887 44.34899 474 ft 0 kts 339°